Tracking 17265 objects as of 4-September-2015
HD Live streaming from Space Station

Track Soyuz TMA-18M
and Space Station

PSLV DEB

Track PSLV DEB now!
10-day predictions
PSLV DEB is classified as:


NORAD ID: 27114
Int'l Code: 2001-049BJ
Perigee: 471.3 km
Apogee: 491.3 km
Inclination: 97.8 °
Period: 94.1 minutes
Semi major axis: 6852 km
RCS: 0.0473 m2 (small)
Launch date: October 22, 2001
Source: India (IND)

Note: This is SATELLITE DEBRIS
Your satellite tracking list
Your tracking list is empty





NASA's NSSDC Master Catalog

Two Line Element Set (TLE):
1 27114U 01049BJ  15245.95007291 +.00018285 +00000-0 +61913-3 0  9996
2 27114 097.8252 227.3649 0014611 053.8075 306.4513 15.30546230744426

Source of the keplerian elements: AFSPC

N2YO: 324